#timestamp,LO_Frequency,Hit,StdDev 
1504116015.4,286047000.3,N,0.3
1504116035.2,286047000.3,N,0.3
1504116055.0,286047000.8,Y,0.0
1504116055.9,286047000.8,P,0.2
1504116075.8,286046998.9,P,0.8
1504116095.6,286046999.2,N,0.8
1504116115.4,286046998.6,N,0.9
1504116135.3,286046999.5,N,0.8
1504116155.1,286046998.8,N,0.8
1504116156.0,286046998.8,N,0.8
1504116175.8,286046998.8,N,0.7
1504116195.7,286046998.9,N,0.7
1504116215.5,286046998.6,N,0.7
1504116235.3,286047001.2,N,0.9
1504116255.2,286047000.8,N,0.9
1504116275.9,286046998.6,N,0.9
1504116295.7,286046998.4,N,0.9
1504116315.6,286046999.0,N,0.9
1504116335.4,286046999.6,N,0.9
1504116355.2,286046999.6,N,0.9
1504116375.1,286046999.0,N,0.8
1504116376.0,286046999.0,N,0.8
1504116395.8,286046998.3,N,0.8
1504116415.6,286046999.2,N,0.8
1504116435.5,286046999.4,N,0.8
1504116455.3,286047011.9,Y,0.0
1504116475.1,286047001.0,P,0.9
1504116495.9,286047000.7,N,0.7
1504116515.7,286047001.0,N,0.7
1504116535.5,286047000.4,N,0.6
1504116555.4,286047000.4,N,0.6
1504116575.2,286047000.9,N,0.6
1504116595.0,286047001.0,N,0.5
1504116595.9,286047001.0,N,0.5
1504116615.8,286682706.4,Y,0.0
1504116635.6,286046998.4,P,1.1
1504116655.4,286046999.3,N,0.9
1504116675.3,286046999.5,N,0.8
1504116695.1,286046999.6,N,0.7
1504116715.8,286046999.2,N,0.7
1504116735.7,286046996.8,Y,0.0
1504116755.5,286046999.6,P,0.1
1504116775.3,286046996.6,P,1.4
1504116795.2,286046998.7,N,1.2
1504116815.0,286046998.3,N,1.1
1504116815.9,286046998.3,N,1.0
1504116835.7,286046998.4,N,0.9
1504116855.6,286046999.3,N,0.9
1504116875.4,286046999.4,N,0.9
1504116895.2,286046998.8,N,0.8
1504116915.1,286046998.9,N,0.8
1504116916.0,286046998.9,N,0.8
1504116935.8,286046998.9,N,0.7
1504116955.7,286046998.2,N,0.7
1504116975.5,286047000.6,N,0.8
1504116995.3,286047000.7,N,0.9
1504117015.2,286047000.8,N,1.0
1504117035.9,286047000.9,N,1.1
1504117055.7,286047000.1,N,1.1
1504117075.6,286047001.9,N,1.2
1504117095.4,286047002.0,N,1.3
1504117115.2,286047002.1,N,1.4
1504117135.1,286047002.0,N,1.4
1504117136.0,286047002.0,N,1.5
1504117155.8,286046999.8,N,1.4
1504117175.6,286047002.7,N,1.5
1504117195.5,286047000.9,N,1.5
1504117215.3,286047000.4,N,1.5
1504117235.1,286047001.0,N,1.5
1504117255.9,286047000.6,N,1.5
1504117275.7,286047001.2,N,1.5
1504117295.5,286047001.1,N,1.5
1504117315.4,286046999.8,N,1.3
1504117335.2,286047002.8,N,1.4
1504117355.0,286047000.0,N,1.3
1504117355.9,286047000.0,N,1.3
1504117375.8,286047002.4,N,1.2
1504117395.6,286046999.7,N,1.2
1504117415.4,286047002.8,N,1.3
1504117435.3,286047000.7,N,1.2
1504117455.1,286047000.8,N,1.2
1504117475.9,286047001.1,N,1.1
1504117495.7,286047001.1,N,1.0
1504117515.5,286046998.2,N,1.0
1504117535.4,286047000.9,N,1.0
1504117555.2,286047001.2,N,1.0
1504117575.0,286046998.1,N,1.2
1504117575.9,286046998.1,N,1.3
1504117595.8,286046998.1,N,1.4
1504117615.6,286046999.4,N,1.4
1504117635.4,286046999.1,N,1.4
1504117655.3,286046997.3,N,1.5
1504117675.1,286046997.8,N,1.5
1504117676.0,286046997.8,N,1.5
1504117695.8,286046996.9,N,1.6
1504117715.7,286046997.6,N,1.6
1504117735.5,286046997.4,N,1.7
1504117755.3,286046995.2,N,1.9
1504117775.2,286046998.0,N,1.9
1504117795.0,286046998.0,N,1.9
1504117795.9,286046998.0,N,1.9
1504117815.7,286046997.9,N,1.8
1504117835.6,286046995.3,N,2.0
1504117855.4,286046995.6,N,1.9
1504117875.2,286046997.9,N,1.9
1504117895.1,286046995.5,N,2.0
1504117896.0,286046995.5,N,1.9
1504117915.8,286046996.2,N,2.0
1504117935.6,286046996.4,N,1.8
1504117955.5,286046993.6,Y,0.0
1504117975.3,286046997.2,P,0.4
1504117995.2,286046997.9,P,0.4
1504118015.9,286046997.9,P,0.3
1504118035.7,286046995.2,Y,0.0
1504118055.6,286046999.6,P,0.9
1504118075.4,286046999.5,N,0.8
1504118095.2,286046997.0,P,1.1
1504118115.1,286046997.1,N,1.1
1504118116.0,286046997.1,N,1.1
1504118135.8,286046996.9,N,1.1
1504118155.6,286046997.6,N,1.0
1504118175.5,286046994.9,Y,0.0
1504118195.3,286046999.4,P,0.8
1504118215.1,286046998.8,N,0.7
1504118235.9,286046998.9,N,0.6
1504118255.7,286046998.4,N,0.5
1504118275.5,286046998.8,N,0.5
1504118295.4,286046998.2,Y,0.0
1504118315.2,286047000.0,P,0.7
1504118335.0,286047000.6,N,0.8
1504118335.9,286047000.6,N,0.8
1504118355.8,286047001.0,N,0.8
1504118375.6,286046998.2,N,1.0
1504118395.4,286046998.6,N,1.1
1504118415.3,286046998.3,N,1.1
1504118435.1,286046998.5,N,1.1
1504118455.8,286046998.1,N,1.1
1504118475.7,286047001.2,N,1.2
1504118495.5,286047000.8,N,1.2
1504118515.3,286046998.2,N,1.2
1504118535.2,286046999.2,N,1.2
1504118555.0,286046996.5,Y,0.0
1504118555.9,286046996.5,P,1.5
1504118575.8,286046996.6,N,1.4
1504118595.6,286046996.6,N,1.2
1504118615.4,286046997.0,N,1.1
1504118635.3,286046999.1,N,1.2
1504118655.1,286046998.9,N,1.2
1504118656.0,286046998.9,N,1.2
1504118675.8,286046999.2,N,1.2
1504118695.7,286046999.4,N,1.2
1504118715.5,286046996.6,N,1.3
1504118735.3,286046997.1,N,1.2
1504118755.2,286046999.5,N,1.3
1504118775.0,286046996.5,N,1.3
1504118775.9,286046996.5,N,1.3
1504118795.7,286046999.5,N,1.3
1504118815.6,286046996.8,N,1.3
1504118835.4,286046996.8,N,1.3
1504118855.2,286046996.6,N,1.3
1504118875.1,286046999.6,N,1.3
1504118876.0,286046999.6,N,1.3
1504118895.8,286046996.6,N,1.3
1504118915.6,286046999.5,N,1.3
1504118935.5,286046996.5,N,1.3
1504118955.3,286046997.3,N,1.3
1504118975.2,286046997.3,N,1.3
1504118995.9,286046997.4,N,1.3
1504119015.7,286046999.2,N,1.3
1504119035.6,286046999.3,N,1.3
1504119055.4,286046997.0,N,1.3
1504119075.2,286046996.6,N,1.3
1504119095.1,286046999.2,N,1.3
1504119096.0,286046999.2,N,1.3
1504119115.8,286046999.6,N,1.3
1504119135.6,286046997.2,N,1.3
1504119155.5,286046997.0,N,1.3
1504119175.3,286046997.3,N,1.3
1504119195.1,286046997.7,N,1.2
1504119215.9,286046997.2,N,1.2
1504119235.7,286046997.0,N,1.2
1504119255.5,286046996.8,N,1.2
1504119275.4,286046996.5,N,1.2
1504119295.2,286046996.8,N,1.2
1504119315.0,286046996.9,N,1.2
1504119315.9,286046996.9,N,1.2
1504119335.8,286046996.8,N,1.1
1504119355.6,286046997.0,N,1.1
1504119375.4,286046997.0,N,1.1
1504119395.3,286046997.0,N,1.1
1504119415.1,286046996.7,Y,0.0
1504119435.8,286047000.4,P,1.4
1504119455.7,286047000.6,N,1.4
1504119475.5,286047000.0,N,1.2
1504119495.3,286047000.6,N,1.1
1504119515.2,286046998.6,N,1.1
1504119535.0,286046998.2,N,1.2
1504119535.9,286046998.2,N,1.2
1504119555.8,286047000.8,N,1.2
1504119575.6,286046998.9,N,1.1
1504119595.4,286046999.6,N,1.1
